Victoria, British Columbia

7:24 AM PST on December 11, 2016 (GMT -0800)
Victoria International

Weather History for CYYJ - February, 2013

Change the Weather History Date:

Saturday, February 9, 2013

  Actual Average Record
Temperature  
Mean Temperature 38 °F -  
Max Temperature 44 °F 48 °F 55 °F (2016)
Min Temperature 32 °F 34 °F 26 °F (2014)
Degree Days  
Heating Degree Days 27    
Moisture  
Dew Point 36 °F    
Average Humidity 88    
Maximum Humidity 93    
Minimum Humidity 76    
Precipitation  
Precipitation 0.00 in 0.12 in - ()
Sea Level Pressure  
Sea Level Pressure 30.30 in    
Wind  
Wind Speed 4 mph ()    
Max Wind Speed 7 mph    
Max Gust Speed -    
Visibility 17.6 miles    
Events Rain    
Averages and records for this station are not official NWS values.
T = Trace of Precipitation, MM = Missing Value Source: Averaged Metar Reports

Daily Weather History Graph

Daily Weather History Graph

Search for Another Location

Airport or City:

Trip Planner

Search our weather history database for the weather conditions in past years. The results will help you decide how hot, cold, wet, or windy it might be!

Date:

Astronomy

Feb. 09, 2013 Rise Set
Actual Time 7:30 AM PST 5:25 PM PST
Civil Twilight 6:57 AM PST 5:58 PM PST
Nautical Twilight 6:20 AM PST 6:35 PM PST
Astronomical Twilight 5:44 AM PST 7:12 PM PST
Moon 6:44 AM PST (2/9) 5:18 PM PST (2/9)
Length of Visible Light 11h 00m
Length of Day
9h 55m
Waning Crescent, 0% of the Moon is Illuminated
Feb 9
Waning Crescent
Feb 9
New
Feb 17
First Quarter
Feb 25
Full
Mar 4
Last Quarter

Hourly Weather History & Observations

Time (PST) Temp. Windchill Dew Point Humidity Pressure Visibility Wind Dir Wind Speed Gust Speed Precip Events Conditions
12:00 AM 33.8 °F 28.6 °F 32.0 °F 93% 30.29 in 30.0 mi WSW 5.8 mph - N/A   Scattered Clouds
1:00 AM 33.8 °F 29.6 °F 32.0 °F 93% 30.29 in 30.0 mi WSW 4.6 mph - N/A   Mostly Cloudy
2:00 AM 35.6 °F 30.7 °F 33.8 °F 93% 30.29 in 30.0 mi SW 5.8 mph - N/A   Mostly Cloudy
3:00 AM 33.8 °F 29.6 °F 32.0 °F 93% 30.28 in 30.0 mi West 4.6 mph - N/A   Partly Cloudy
4:00 AM 34 °F - 33 °F 92% 30.28 in 28 mi WSW 5.8 mph - -   Mostly Cloudy
4:00 AM 33.8 °F 28.6 °F 32.0 °F 93% 30.28 in 30.0 mi WSW 5.8 mph - N/A   Mostly Cloudy
5:00 AM 35.6 °F 31.7 °F 33.8 °F 93% 30.29 in 20.0 mi West 4.6 mph - N/A   Overcast
6:00 AM 37.4 °F 32.8 °F 33.8 °F 87% 30.29 in 20.0 mi WNW 5.8 mph - N/A   Overcast
7:00 AM 35.6 °F 30.7 °F 33.8 °F 93% 30.27 in 20.0 mi WNW 5.8 mph - N/A   Mostly Cloudy
8:00 AM 37.4 °F 32.8 °F 33.8 °F 87% 30.28 in 20.0 mi West 5.8 mph - N/A   Mostly Cloudy
9:00 AM 39.2 °F 34.2 °F 35.6 °F 87% 30.28 in 20.0 mi West 6.9 mph - N/A   Mostly Cloudy
10:00 AM 40 °F - 36 °F 80% 30.30 in 19 mi West 6.9 mph - -   Overcast
10:00 AM 41.0 °F 37.1 °F 35.6 °F 81% 30.30 in 20.0 mi West 5.8 mph - N/A   Overcast
11:00 AM 42.8 °F 41.1 °F 37.4 °F 81% 30.29 in 20.0 mi WSW 3.5 mph - N/A   Overcast
12:00 PM 42.8 °F - 35.6 °F 76% 30.29 in 20.0 mi NW 2.3 mph - N/A   Overcast
1:00 PM 44.6 °F - 37.4 °F 76% 30.29 in 20.0 mi Calm Calm - N/A   Overcast
2:00 PM 44.6 °F - 37.4 °F 76% 30.28 in 15.0 mi NNW 2.3 mph - N/A   Overcast
3:00 PM 42.8 °F 38.6 °F 39.2 °F 87% 30.29 in 12.0 mi NNE 6.9 mph - N/A   Overcast
4:00 PM 43 °F - 39 °F 82% 30.30 in 12 mi NNE 5.8 mph - -   Overcast
4:00 PM 42.8 °F 39.3 °F 39.2 °F 87% 30.30 in 12.0 mi NNE 5.8 mph - N/A   Overcast
5:00 PM 42.8 °F 41.1 °F 39.2 °F 87% 30.31 in 10.0 mi NNE 3.5 mph - N/A Rain Light Rain
6:00 PM 42.8 °F 41.1 °F 39.2 °F 87% 30.32 in 10.0 mi NNE 3.5 mph - N/A Rain Light Rain
6:36 PM 42.8 °F - - N/A% - 15.0 mi Calm Calm - N/A   Overcast
7:00 PM 41.0 °F - 39.2 °F 93% 30.32 in 20.0 mi Calm Calm - N/A   Overcast
8:00 PM 41.0 °F - 39.2 °F 93% 30.32 in 20.0 mi West 2.3 mph - N/A   Overcast
9:00 PM 41.0 °F - 39.2 °F 93% 30.34 in 20.0 mi Calm Calm - N/A   Overcast
10:00 PM 41 °F - 38 °F 87% 30.35 in 19 mi West 2.3 mph - -   Partly Cloudy
10:00 PM 41.0 °F - 39.2 °F 93% 30.35 in 20.0 mi Calm Calm - N/A   Overcast
11:00 PM 41.0 °F - 39.2 °F 93% 30.36 in 20.0 mi WSW 2.3 mph - N/A   Overcast